Location: Kuffner-Sternwarte
(48.2130°N, 16.2960°E)
Time: 08:14:23
(UTC+02:00)

COROT - Pass Details

Date: 13 January 2018
Orbit: 602 x 887 km, 90.0° (Epoch: 16 July)

Event Time Altitude Azimuth Distance (km) Brightness Sun altitude
Rises 04:40:06 0° 9° (N) 2,877 9.1 -29.6°
Reaches altitude 10° 04:42:29 10° 20° (NNE) 1,959 8.3 -29.2°
Maximum altitude 04:46:20 33° 85° (E) 1,027 7.2 -28.5°
Drops below altitude 10° 04:50:13 10° 150° (SSE) 1,968 8.5 -27.9°
Sets 04:52:37 0° 160° (SSE) 2,892 9.3 -27.5°
